[Iaude] MPEC C140: 2024 CD3 [a=1.47,e=0.39,i=5.5,H=25.9]

mpec at cfa.harvard.edu mpec at cfa.harvard.edu
Tue Feb 13 01:58:19 EST 2024


M.P.E.C. 2024-C140                            Issued 2024 February 13, 06:56 UT

     The Minor Planet Electronic Circulars contain information on unusual
         minor planets, routine data on comets and natural satellites,
         and occasional editorial announcements.  They are published
    on behalf of Division F of the International Astronomical Union by the
          Minor Planet Center, Smithsonian Astrophysical Observatory,
                          Cambridge, MA 02138, U.S.A.
			  
             Prepared using the Tamkin Foundation Computer Network

                              MPC at CFA.HARVARD.EDU
            URL https://www.minorplanetcenter.net/    ISSN 1523-6714

                                    2024 CD3                                    


Observations:
     K24C03D* C2024 02 11.53378710 25 02.749-10 48 01.21         21.02wXEC140F52
     K24C03D  C2024 02 11.54550010 25 03.601-10 45 54.55         21.22wXEC140F52
     K24C03D  C2024 02 11.55724910 25 04.471-10 43 48.03         20.93wXEC140F52
     K24C03D  C2024 02 11.56896110 25 05.344-10 41 41.47         20.85wXEC140F52
     K24C03D  C2024 02 11.64449810 25 11.778-10 28 07.76         21.35GVEC140F52
     K24C03D  C2024 02 11.64531710 25 11.871-10 27 59.26         21.11GVEC140F52
     K24C03D |C2024 02 12.19951010 26 26.900-08 51 35.20         20.7 GVEC140807
     K24C03D |C2024 02 12.20398010 26 27.190-08 50 51.10         21.0 GVEC140807
     K24C03D |C2024 02 12.20831010 26 27.450-08 50 08.40         21.1 GVEC140807
     K24C03D  C2024 02 13.26225510 28 17.975-06 09 41.76         21.0 GVEC140H01
     K24C03D  C2024 02 13.26647510 28 18.201-06 09 05.21         20.9 GVEC140H01
     K24C03D  C2024 02 13.27718210 28 18.771-06 07 32.71         20.8 GVEC140H01
     K24C03D  C2024 02 13.28287710 28 19.065-06 06 43.56         20.9 GVEC140H01

Observer details:
807 Cerro Tololo Observatory, La Serena.  Observers T. Linder, R. Holmes.
    0.61-m f/11 Ritchey-Chretien + CCD.
F52 Pan-STARRS 2, Haleakala.  Observers J. Herman, T. Lowe, P. Minguez, A.
    Schultz, I. Smith.  Measurers K. Chambers, T. de Boer, J. Fairlamb, H.
    Gao, M. Huber, C.-C. Lin, E. Magnier, Y. Ramanjooloo, R. Wainscoat, R.
    Weryk.  1.8-m Ritchey-Chretien + CCD.
H01 Magdalena Ridge Observatory, Socorro.  Observers W. H. Ryan, E. V. Ryan.
    Measurer W. H. Ryan.  2.4-m f/8.9 Ritchey-Chretien + CCD.

Orbital elements:
2024 CD3                                                 Earth MOID = 0.0354 AU
Epoch 2023 Sept. 13.0 TT = JDT 2460200.5                MPC                     
M 303.31871              (2000.0)            P               Q                  
n   0.55149010     Peri.  287.89201     +0.12787671     -0.99093958             
a   1.4726885      Node   154.65254     +0.94239729     +0.10850053             
e   0.3943919      Incl.    5.50434     +0.30908721     +0.07916047             
P   1.79           H   25.95          G   0.15           U   8                  
Residuals in seconds of arc
240211 F52  0.1+  0.1+    240211 F52  0.1+  0.1-    240213 H01  0.0   0.0
240211 F52  0.2+  0.1+    240212 807  0.1-  0.0     240213 H01  0.0   0.0
240211 F52  0.3+  0.3-    240212 807  0.1+  0.0     240213 H01  0.0   0.0
240211 F52  0.1+  0.2-    240212 807  0.1-  0.0
240211 F52  0.1-  0.2+    240213 H01  0.0   0.0

Ephemeris:
2024 CD3                 a,e,i = 1.47, 0.39, 6                   q = 0.8919
Date    TT    R. A. (2000) Decl.     Delta      r    Elong.  Phase     V
2024 01 14    23 14 06.6 -46 19 04   0.1021  0.9210    49.8   125.3    26.1
...
2024 01 29    04 10 49.9 -79 10 31   0.04282 0.9754    76.1   101.4    22.8
...
2024 02 06    10 04 28.2 -34 37 57   0.04266 1.0129   128.1    50.0    21.0
...
2024 02 12    10 26 02.1 -09 25 50   0.06283 1.0438   153.8    24.7    21.2
2024 02 13    10 27 49.2 -06 46 59   0.06704 1.0491   156.7    21.9    21.2
2024 02 14    10 29 20.8 -04 26 22   0.07142 1.0545   159.3    19.3    21.3
...
2024 02 20    10 35 04.4 +05 12 06   0.1003  1.0878   171.4     7.9    21.7
...
2024 02 28    10 38 22.6 +11 42 56   0.1440  1.1341   176.6     3.0    22.3
...
2024 03 14    10 41 57.7 +16 26 40   0.2410  1.2243   160.7    15.6    24.2

A. U. Tomatic                (C) Copyright 2024 MPC           M.P.E.C. 2024-C140





More information about the Iaude mailing list